Location: Ahausen
(50.4985°N, 8.2722°E)
Time: 02:44:41
(UTC+00:00)

ITUPSAT 1 - Pass Details

Date: 05 July 2022
Orbit: 701 x 711 km, 98.6° (Epoch: 11 August)

Event Time Altitude Azimuth Distance (km) Brightness Sun altitude
Rises 22:08:29 0° 360° (N) 3,115 ? -14.5°
Reaches altitude 10° 22:12:37 10° 325° (NW) 2,192 ? -14.7°
Maximum altitude 22:13:47 11° 310° (NW) 2,133 ? -14.8°
Drops below altitude 10° 22:14:57 10° 296° (WNW) 2,191 ? -14.8°
Sets 22:19:05 0° 261° (W) 3,106 ? -15.0°
